Tracking 18784 objects as of 18-August-2017
HD Live streaming from Space Station
objects crossing your sky now

MOZ.5/SAFIR/RUBIN 5/SL-8

Track MOZ.5/SAFIR/RUBIN 5/SL-8 now!
10-day predictions
MOZ.5/SAFIR/RUBIN 5/SL-8 is classified as:


NORAD ID: 28898
Int'l Code: 2005-043G
Perigee: 685.8 km
Apogee: 713.6 km
Inclination: 97.9 °
Period: 98.6 minutes
Semi major axis: 7070 km
RCS: 6.834 m2 (large)
Launch date: October 27, 2005
Source: Germany (GER)
Launch site: PLESETSK MISSILE AND SPACE COMPLEX (PKMTR)
Uplink (MHz):
Downlink (MHz):
Beacon (MHz):
Mode:
Call sign:
Status:

Your satellite tracking list
Your tracking list is empty





NASA's NSSDC Master Catalog

Two Line Element Set (TLE):
1 28898U 05043G   17229.92940771 +.00000046 +00000-0 +18711-4 0  9999
2 28898 097.9350 017.0113 0019659 358.1443 001.9682 14.60188592252213
Source of the keplerian elements: AFSPC